EW7217 Weather Reports


time (UTC)temp
C
wind
direction
speed
KPH
gust
KPH
rain 1hr
cm
rain 24hr
cm
rain mn
cm
humidity
%
barometer
mb
20260506153426 16 196 0.0 1.6 0.00 0.00 0.00 80 1044.8
20260506153326 16 157 0.0 0.0 0.00 0.00 0.00 81 1044.8
20260506152326 15 22 0.0 0.0 0.00 0.00 0.00 84 1044.9
20260506152225 15 360 0.0 1.6 0.00 0.00 0.00 84 1044.9
20260506151224 15 157 0.0 0.0 0.00 0.00 0.00 93 1044.9
20260506151126 15 157 0.0 0.0 0.00 0.00 0.00 94 1044.9
20260506151027 15 157 0.0 0.0 0.00 0.00 0.00 95 1044.9
20260506150124 14 180 0.0 0.0 0.00 0.00 0.00 98 1045.0
20260506145124 12 180 0.0 0.0 0.00 0.00 0.00 98 1044.9
20260506144126 11 180 0.0 0.0 0.00 0.00 0.00 98 1045.0
20260506143127 10 180 0.0 0.0 0.00 0.00 0.00 97 1044.8
20260506142224 -17 0 0.0 0.0 0.00 0.00 0.00 100
20260506142125 -17 0 0.0 0.0 0.00 0.00 0.00 100
20260506141219 8 180 0.0 0.0 0.00 0.00 0.00 97 1044.5
20260506140220 8 180 0.0 0.0 0.00 0.00 0.00 97 1044.4
20260506140119 8 180 0.0 0.0 0.00 0.00 0.00 97 1044.4
20260506140020 8 180 0.0 0.0 0.00 0.00 0.00 98 1044.3
20260506135020 8 180 0.0 0.0 0.00 0.00 0.00 97 1044.4
20260506134921 8 180 0.0 0.0 0.00 0.00 0.00 97 1044.4
20260506134020 8 180 0.0 0.0 0.00 0.00 0.00 96 1044.3
20260506133022 8 180 0.0 0.0 0.00 0.00 0.00 97 1044.2
20260506130120 8 180 0.0 0.0 0.00 0.00 0.00 98 1043.9
20260506125019 8 180 0.0 0.0 0.00 0.00 0.00 97 1043.8
20260506123920 8 180 0.0 0.0 0.00 0.00 0.00 97 1043.8
20260506122919 8 180 0.0 0.0 0.00 0.00 0.00 97 1043.8
20260506122018 8 67 0.0 0.0 0.00 0.00 0.00 97 1043.8
20260506121021 7 67 0.0 0.0 0.00 0.00 0.00 96 1043.9
20260506115021 8 67 0.0 0.0 0.00 0.00 0.00 97 1044.0
20260506113020 8 67 0.0 0.0 0.00 0.00 0.00 97 1043.9
20260506111119 8 67 0.0 0.0 0.00 0.00 0.00 97 1044.0
20260506111021 8 67 0.0 0.0 0.00 0.00 0.00 97 1044.0
20260506110020 8 67 0.0 0.0 0.00 0.00 0.00 97 1043.9
20260506105020 8 67 0.0 0.0 0.00 0.00 0.00 96 1043.9
20260506104021 8 67 0.0 0.0 0.00 0.00 0.00 96 1043.8
20260506103020 8 67 0.0 0.0 0.00 0.00 0.00 96 1043.9
20260506102021 8 67 0.0 0.0 0.00 0.00 0.00 95 1043.8
20260506101020 8 67 0.0 0.0 0.00 0.00 0.00 95 1043.9
20260506100921 8 67 0.0 0.0 0.00 0.00 0.00 96 1043.9
20260506095919 8 67 0.0 0.0 0.00 0.00 0.00 96 1043.8
20260506094820 8 67 0.0 0.0 0.00 0.00 0.00 95 1043.8
20260506093819 9 67 0.0 0.0 0.00 0.00 0.00 95 1044.0
20260506093723 9 67 0.0 0.0 0.00 0.00 0.00 94 1043.9
20260506092820 9 67 0.0 0.0 0.00 0.00 0.00 95 1043.8
20260506092721 9 67 0.0 0.0 0.00 0.00 0.00 95 1043.8
20260506091719 9 67 0.0 0.0 0.00 0.00 0.00 95 1044.0
20260506085622 10 67 0.0 0.0 0.00 0.00 0.00 95 1044.2
20260506084619 10 67 0.0 0.0 0.00 0.00 0.00 95 1044.2
20260506084519 10 67 0.0 0.0 0.00 0.00 0.00 95 1044.2
20260506083521 10 67 0.0 0.0 0.00 0.00 0.00 94 1044.1
20260506082519 10 67 0.0 0.0 0.00 0.00 0.00 92 1044.3
20260506082422 10 67 0.0 0.0 0.00 0.00 0.00 93 1044.3
20260506081419 10 67 0.0 0.0 0.00 0.00 0.00 94 1044.3
20260506080518 10 67 0.0 0.0 0.00 0.00 0.00 94 1044.4
20260506073319 11 67 0.0 0.0 0.00 0.00 0.00 92 1044.2
20260506072321 11 67 0.0 0.0 0.00 0.00 0.00 91 1044.2
20260506071419 11 67 0.0 0.0 0.00 0.00 0.00 93 1044.2
20260506070518 11 67 0.0 0.0 0.00 0.00 0.00 92 1044.1
20260506061514 11 67 0.0 0.0 0.00 0.00 0.00 91 1043.7
20260506061415 11 67 0.0 0.0 0.00 0.00 0.00 91 1043.7
20260506060513 11 270 0.0 0.0 0.00 0.00 0.00 91 1043.6
20260506051412 -17 0 0.0 0.0 0.00 0.00 0.00 100
20260506050413 12 247 0.0 0.0 0.00 0.00 0.00 87 1043.4
20260506044315 12 292 0.0 0.0 0.00 0.00 0.00 85 1043.1
20260506043413 -17 0 0.0 0.0 0.00 0.00 0.00 100
20260506043315 -17 0 0.0 0.0 0.00 0.00 0.00 100
20260506042313 12 315 1.6 1.6 0.00 0.00 0.00 84 1042.9
20260506041315 12 22 0.0 0.0 0.00 0.00 0.00 83 1042.9
20260506040412 12 22 0.0 0.0 0.00 0.00 0.00 84 1042.8
20260506040314 12 22 0.0 0.0 0.00 0.00 0.00 83 1042.8
20260506035314 12 45 0.0 0.0 0.00 0.00 0.00 82 1042.7
20260506034314 12 360 0.0 0.0 0.00 0.00 0.00 81 1042.5
20260506033313 -17 0 0.0 0.0 0.00 0.00 0.00 100
20260506032412 -17 0 0.0 0.0 0.00 0.00 0.00 100
20260506031415 -17 0 0.0 0.0 0.00 0.00 0.00 100
20260506025425 14 292 1.6 1.6 0.00 0.00 0.00 77 1041.7
20260506023524 15 327 0.0 4.8 0.00 0.00 0.00 76 1041.4
20260506022523 15 50 0.0 3.2 0.00 0.00 0.00 73 1041.3
20260506022424 15 303 0.0 4.8 0.00 0.00 0.00 73 1041.4
20260506021424 16 270 0.0 0.0 0.00 0.00 0.00 72 1041.2
20260506020424 16 303 1.6 6.4 0.00 0.00 0.00 69 1041.0
20260506015524 17 5 3.2 6.4 0.00 0.00 0.00 67 1040.9
20260506014524 17 324 1.6 8.0 0.00 0.00 0.00 68 1040.8
20260506014424 17 325 1.6 4.8 0.00 0.00 0.00 67 1040.9
20260506013523 17 248 1.6 4.8 0.00 0.00 0.00 67 1040.8
20260506010624 18 303 0.0 3.2 0.00 0.00 0.00 66 1040.7
20260506004725 18 264 3.2 9.7 0.00 0.00 0.00 64 1040.8
20260506002725 19 294 1.6 8.0 0.00 0.00 0.00 64 1040.6
20260506001824 19 275 1.6 9.7 0.00 0.00 0.00 64 1040.5
20260506001725 19 301 3.2 11.3 0.00 0.00 0.00 63 1040.6
20260506000723 19 267 3.2 6.4 0.00 0.00 0.00 64 1040.5
20260505235723 19 295 3.2 11.3 0.00 0.00 0.00 65 1040.6
20260505234723 18 51 0.0 1.6 0.00 0.00 0.00 66 1040.6
20260505233723 19 317 3.2 11.3 0.00 0.00 0.00 62 1040.7
20260505231724 20 254 1.6 4.8 0.00 0.00 0.00 62 1040.5
20260505230724 20 249 4.8 9.7 0.00 0.00 0.00 61 1040.7
20260505230625 20 256 1.6 4.8 0.00 0.00 0.00 60 1040.7
20260505225722 20 249 4.8 9.7 0.00 0.00 0.00 60 1040.7
20260505224725 20 208 3.2 9.7 0.00 0.00 0.00 62 1040.7
20260505223823 20 268 1.6 8.0 0.00 0.00 0.00 62 1041.1
20260505222823 20 224 4.8 12.9 0.00 0.00 0.00 62 1041.1
20260505221825 20 259 3.2 6.4 0.00 0.00 0.00 62 1041.1
20260505220824 19 284 3.2 11.3 0.00 0.00 0.00 62 1041.1
20260505215823 19 284 1.6 8.0 0.00 0.00 0.00 63 1041.2
20260505214824 18 286 1.6 11.3 0.00 0.00 0.00 63 1041.3
20260505214725 18 276 3.2 4.8 0.00 0.00 0.00 63 1041.4
20260505213724 18 270 1.6 6.4 0.00 0.00 0.00 61 1041.5
20260505212725 18 239 1.6 11.3 0.00 0.00 0.00 62 1041.5
20260505212623 18 336 3.2 11.3 0.00 0.00 0.00 62 1041.5
20260505211639 18 136 0.0 4.8 0.00 0.00 0.00 61 1041.5
20260505210624 18 251 3.2 12.9 0.00 0.00 0.00 60 1041.7
20260505205624 18 16 1.6 8.0 0.00 0.00 0.00 60 1041.6
20260505203726 18 321 3.2 9.7 0.00 0.00 0.00 62 1041.7
20260505202824 18 286 3.2 9.7 0.00 0.00 0.00 62 1041.6
20260505201923 18 269 0.0 6.4 0.00 0.00 0.00 63 1041.7
20260505200923 18 331 1.6 4.8 0.00 0.00 0.00 61 1041.8
20260505195924 18 259 3.2 6.4 0.00 0.00 0.00 62 1041.7
20260505193922 19 287 1.6 9.7 0.00 0.00 0.00 60 1041.7
20260505192926 19 264 1.6 4.8 0.00 0.00 0.00 60 1041.7
20260505191924 19 262 1.6 6.4 0.00 0.00 0.00 57 1041.9
20260505185927 20 255 3.2 8.0 0.00 0.00 0.00 58 1041.7
20260505184924 20 179 1.6 4.8 0.00 0.00 0.00 59 1041.6
20260505184024 20 256 0.0 4.8 0.00 0.00 0.00 60 1041.6
20260505182922 20 261 1.6 8.0 0.00 0.00 0.00 59 1041.6
20260505181925 20 248 3.2 11.3 0.00 0.00 0.00 58 1041.7
20260505181024 20 338 0.0 3.2 0.00 0.00 0.00 59 1041.5
20260505180023 20 32 0.0 4.8 0.00 0.00 0.00 60 1041.6
20260505175023 20 274 1.6 4.8 0.00 0.00 0.00 60 1041.4
20260505174022 20 321 0.0 4.8 0.00 0.00 0.00 59 1041.4
20260505173023 20 248 0.0 3.2 0.00 0.00 0.00 62 1041.2
20260505172923 19 141 0.0 1.6 0.00 0.00 0.00 62 1041.2
20260505172824 19 357 0.0 4.8 0.00 0.00 0.00 62 1041.1
20260505171826 19 296 1.6 4.8 0.00 0.00 0.00 61 1041.3
20260505165925 17 314 1.6 4.8 0.00 0.00 0.00 64 1041.5
20260505164926 17 331 1.6 6.4 0.00 0.00 0.00 64 1041.5
20260505164824 17 302 3.2 6.4 0.00 0.00 0.00 64 1041.4
20260505163825 18 325 0.0 1.6 0.00 0.00 0.00 64 1041.4
20260505163725 18 333 1.6 3.2 0.00 0.00 0.00 65 1041.4
20260505162725 18 48 0.0 1.6 0.00 0.00 0.00 65 1041.2
20260505161824 17 273 0.0 4.8 0.00 0.00 0.00 68 1041.3
20260505160823 17 33 0.0 3.2 0.00 0.00 0.00 70 1041.4
20260505160724 17 273 0.0 3.2 0.00 0.00 0.00 70 1041.4